Overview Statistics Trail Chart Weather Telemetry Raw packets
 

This is the latest recevied weather packets stored in our database for station/object WA4ORT. If no packets are shown the sender has not sent any weather packets the latest 10 day(s).

<< 19 20 21 22 23 24 25 >>
Time Temp. Humidity Pressure Rain* Wind** Luminosity Snow
1788196525 30.56° C - - 0 mm 2.24 m/s, 328° - -
1788195627 30° C - - 0 mm 0.89 m/s, 58° - -
1788194733 28.89° C - - 0 mm 0.89 m/s, 329° - -
1788193838 28.89° C - - 0 mm 0.89 m/s, 346° - -
1788192941 29.44° C - - 0 mm 0.45 m/s, 142° - -
1788192046 28.33° C - - 0 mm 1.79 m/s, 51° - -
1788191250 27.22° C - - 0 mm 0.89 m/s, 349° - -
1788191152 27.22° C - - 0 mm 0.89 m/s, 349° - -
1788188509 27.78° C - - 0 mm 0 m/s - -
1788188465 27.78° C - - 0 mm 0 m/s - -
1788187680 27.22° C - - 0 mm 0.89 m/s, 338° - -
1788187568 27.22° C - - 0 mm 0.89 m/s, 338° - -
1788184881 26.11° C - - 0 mm 0.89 m/s, 45° - -
1788183987 26.11° C - - 0 mm 1.79 m/s, 322° - -
1788182195 25° C - - 0 mm 0.45 m/s, 353° - -
1788181353 24.44° C - - 0 mm 0.45 m/s, 318° - -
1788181301 24.44° C - - 0 mm 0.45 m/s, 318° - -
1788180406 24.44° C - - 0 mm 0 m/s - -
1788179565 23.89° C - - 0 mm 0 m/s - -
1788179508 23.89° C - - 0 mm 0 m/s - -
1788178614 23.33° C - - 0 mm 0 m/s - -
1788177759 22.78° C - - 0 mm 0 m/s - -
1788177720 22.78° C - - 0 mm 0 m/s - -
1788175928 22.22° C - - 0 mm 0 m/s - -
1788175085 22.22° C - - 0 mm 0 m/s - -

* Rain latest hour (hover to see other rain measurements)
** Current wind speed in m/s (hover to see current wind gust speed)